Holyoke AP, Holyoke, CO, CO

6:54 AM MDT on October 21, 2017 (GMT -0600)
Holyoke Municipal

Weather History for KHEQ - June, 2014

Change the Weather History Date:

Wednesday, June 4, 2014

  Actual Average Record
Temperature  
Mean Temperature 72 °F -  
Max Temperature 84 °F 78 °F 84 °F (2014)
Min Temperature 60 °F 50 °F 59 °F (2013)
Cooling Degree Days 7    
Growing Degree Days 22 (Base 50)    
Moisture  
Dew Point 55 °F    
Average Humidity 56    
Maximum Humidity 88    
Minimum Humidity 37    
Precipitation  
Precipitation 0.00 in - - ()
Sea Level Pressure  
Sea Level Pressure 29.91 in    
Wind  
Wind Speed 11 mph (ESE)    
Max Wind Speed 34 mph    
Max Gust Speed 39 mph    
Visibility 10 miles    
Events      
Averages and records for this station are not official NWS values.
T = Trace of Precipitation, MM = Missing Value Source: NWS Daily Summary

Daily Weather History Graph

Daily Weather History Graph

Search for Another Location

Airport or City:

Trip Planner

Search our weather history database for the weather conditions in past years. The results will help you decide how hot, cold, wet, or windy it might be!

Date:

Astronomy

Jun. 04, 2014 Rise Set
Actual Time 5:19 AM MDT 8:15 PM MDT
Civil Twilight 4:46 AM MDT 8:48 PM MDT
Nautical Twilight 4:05 AM MDT 9:30 PM MDT
Astronomical Twilight 3:17 AM MDT 10:18 PM MDT
Moon 11:42 AM MDT (6/4) 12:14 AM MDT (6/4)
Length of Visible Light 16h 01m
Length of Day
14h 56m
Waxing Crescent, 39% of the Moon is Illuminated
Jun 4
Waxing Crescent
Jun 5
First Quarter
Jun 12
Full
Jun 19
Last Quarter
Jun 27
New

Hourly Weather History & Observations

Time (MDT) Temp. Heat Index Dew Point Humidity Pressure Visibility Wind Dir Wind Speed Gust Speed Precip Events Conditions
12:15 AM 60.8 °F - 55.4 °F 82% 29.88 in 10.0 mi NE 12.7 mph - N/A   Overcast
12:35 AM 60.8 °F - 57.2 °F 88% 29.89 in 10.0 mi NE 9.2 mph - N/A   Overcast
12:55 AM 60.8 °F - 55.4 °F 82% 29.89 in 10.0 mi NE 13.8 mph - N/A   Overcast
1:15 AM 60.8 °F - 57.2 °F 88% 29.89 in 10.0 mi NNE 12.7 mph - N/A   Overcast
1:35 AM 60.8 °F - 57.2 °F 88% 29.90 in 10.0 mi NE 9.2 mph - N/A   Overcast
1:55 AM 60.8 °F - 57.2 °F 88% 29.90 in 10.0 mi NNE 9.2 mph - N/A   Overcast
2:15 AM 60.8 °F - 57.2 °F 88% 29.91 in 10.0 mi NNE 9.2 mph - N/A   Overcast
2:20 AM 60.8 °F - 57.2 °F 88% 29.91 in 10.0 mi NNE 8.1 mph - N/A   Overcast
9:35 AM 69.8 °F - 55.4 °F 60% 29.99 in 10.0 mi North 10.4 mph - N/A   Clear
9:55 AM 69.8 °F - 55.4 °F 60% 29.99 in 10.0 mi NNW 6.9 mph - N/A   Clear
10:15 AM 73.4 °F - 57.2 °F 57% 29.98 in 10.0 mi NNW 5.8 mph - N/A   Clear
10:35 AM 73.4 °F - 57.2 °F 57% 29.98 in 10.0 mi East 3.5 mph - N/A   Clear
10:55 AM 73.4 °F - 55.4 °F 53% 29.98 in 10.0 mi NE 5.8 mph - N/A   Clear
11:15 AM 73.4 °F - 55.4 °F 53% 29.98 in 10.0 mi ENE 6.9 mph - N/A   Clear
11:35 AM 73.4 °F - 53.6 °F 50% 29.98 in 10.0 mi Calm Calm - N/A   Clear
11:55 AM 78.8 °F - 57.2 °F 47% 29.97 in 10.0 mi East 4.6 mph - N/A   Clear
12:15 PM 78.8 °F - 55.4 °F 44% 29.97 in 10.0 mi East 3.5 mph - N/A   Clear
12:35 PM 78.8 °F - 57.2 °F 47% 29.96 in 10.0 mi ESE 6.9 mph - N/A   Clear
12:55 PM 78.8 °F - 55.4 °F 44% 29.96 in 10.0 mi East 6.9 mph - N/A   Clear
1:15 PM 78.8 °F - 53.6 °F 42% 29.95 in 10.0 mi ESE 6.9 mph - N/A   Clear
1:35 PM 80.6 °F 80.5 °F 55.4 °F 42% 29.95 in 10.0 mi SSE 5.8 mph - N/A   Clear
1:55 PM 80.6 °F 80.5 °F 55.4 °F 42% 29.94 in 10.0 mi ESE 9.2 mph - N/A   Clear
2:15 PM 80.6 °F 80.3 °F 53.6 °F 39% 29.93 in 10.0 mi ESE 10.4 mph - N/A   Clear
2:35 PM 80.6 °F 80.3 °F 53.6 °F 39% 29.92 in 10.0 mi ESE 8.1 mph - N/A   Clear
2:55 PM 82.4 °F 81.7 °F 55.4 °F 39% 29.92 in 10.0 mi ESE 13.8 mph 18.4 mph N/A   Clear
3:15 PM 84.2 °F 83.0 °F 55.4 °F 37% 29.92 in 10.0 mi ESE 6.9 mph - N/A   Clear
3:35 PM 80.6 °F 80.5 °F 55.4 °F 42% 29.91 in 10.0 mi ESE 15.0 mph 25.3 mph N/A   Clear
3:55 PM 80.6 °F 80.5 °F 55.4 °F 42% 29.90 in 10.0 mi ESE 11.5 mph 20.7 mph N/A   Clear
4:15 PM 80.6 °F 80.5 °F 55.4 °F 42% 29.90 in 10.0 mi ESE 15.0 mph - N/A   Clear
4:35 PM 80.6 °F 80.5 °F 55.4 °F 42% 29.89 in 10.0 mi SE 17.3 mph 20.7 mph N/A   Clear
4:55 PM 80.6 °F 80.5 °F 55.4 °F 42% 29.88 in 10.0 mi ESE 13.8 mph 20.7 mph N/A   Clear
5:15 PM 80.6 °F 80.5 °F 55.4 °F 42% 29.88 in 10.0 mi SE 16.1 mph 20.7 mph N/A   Clear
5:35 PM 78.8 °F - 55.4 °F 44% 29.87 in 10.0 mi ESE 17.3 mph 21.9 mph N/A   Clear
5:55 PM 77.0 °F - 55.4 °F 47% 29.88 in 10.0 mi SE 17.3 mph - N/A   Clear
6:15 PM 73.4 °F - 55.4 °F 53% 29.88 in 10.0 mi SE 12.7 mph - N/A   Clear
6:35 PM 73.4 °F - 57.2 °F 57% 29.88 in 10.0 mi SE 16.1 mph 19.6 mph N/A   Clear
6:55 PM 73.4 °F - 59.0 °F 61% 29.89 in 10.0 mi SE 11.5 mph - N/A   Clear
7:15 PM 71.6 °F - 57.2 °F 60% 29.89 in 10.0 mi ESE 10.4 mph - N/A   Clear
7:35 PM 71.6 °F - 57.2 °F 60% 29.91 in 10.0 mi SE 15.0 mph - N/A   Scattered Clouds
7:55 PM 71.6 °F - 57.2 °F 60% 29.90 in 10.0 mi SSE 15.0 mph 23.0 mph N/A   Scattered Clouds
8:15 PM 71.6 °F - 57.2 °F 60% 29.86 in 10.0 mi SE 18.4 mph 24.2 mph N/A   Clear
8:35 PM 69.8 °F - 55.4 °F 60% 29.87 in 10.0 mi South 34.5 mph 39.1 mph N/A   Clear
9:15 PM 73.4 °F - 51.8 °F 47% 29.85 in 10.0 mi SSE 20.7 mph 26.5 mph N/A   Clear
9:35 PM 69.8 °F - 53.6 °F 56% 29.86 in 10.0 mi South 19.6 mph 26.5 mph N/A   Clear
9:55 PM 68.0 °F - 57.2 °F 68% 29.86 in 10.0 mi South 21.9 mph 38.0 mph N/A   Clear
10:15 PM 69.8 °F - 55.4 °F 60% 29.87 in 10.0 mi South 21.9 mph 32.2 mph N/A   Clear
10:35 PM 69.8 °F - 55.4 °F 60% 29.87 in 10.0 mi South 15.0 mph - N/A   Clear
10:55 PM 73.4 °F - 46.4 °F 38% 29.85 in 10.0 mi SSW 24.2 mph 32.2 mph N/A   Clear
11:15 PM 73.4 °F - 46.4 °F 38% 29.87 in 10.0 mi South 13.8 mph - N/A   Clear
11:35 PM 69.8 °F - 55.4 °F 60% 29.92 in 10.0 mi NNE 18.4 mph 34.5 mph N/A   Scattered Clouds
11:55 PM 71.6 °F - 55.4 °F 57% 29.93 in 10.0 mi North 13.8 mph 26.5 mph N/A   Scattered Clouds